#timestamp,LO_Frequency,Hit 
1505340015.7,286047004.7,N
1505340035.6,286047004.6,N
1505340055.4,286047004.9,N
1505340075.2,286047005.5,N
1505340095.1,286047002.2,N
1505340096.0,286047002.2,N
1505340115.8,286046999.9,N
1505340135.6,286047000.6,N
1505340155.5,286047002.3,N
1505340175.3,286047003.8,N
1505340195.1,286047000.2,N
1505340215.9,286047001.3,N
1505340235.7,286047005.6,N
1505340255.5,286047001.9,N
1505340275.3,286047002.5,N
1505340295.2,286047000.4,N
1505340315.0,286047000.9,N
1505340315.9,286047000.9,N
1505340335.7,286047000.0,N
1505340355.6,286047001.5,N
1505340375.4,286047001.5,N
1505340395.2,286047001.1,N
1505340415.1,286046997.0,N
1505340416.0,286046997.0,N
1505340435.8,286046995.9,N
1505340455.6,286046997.0,N
1505340475.5,286047001.1,N
1505340495.3,286047004.4,N
1505340515.1,286047006.0,N
1505340535.9,286047006.3,N
1505340555.7,286047004.7,N
1505340575.5,286047002.4,N
1505340595.4,286047000.3,N
1505340615.2,286047000.6,N
1505340635.0,286047000.9,N
1505340635.9,286047000.9,N
1505340655.7,286047004.0,N
1505340675.6,286047005.3,N
1505340695.4,286047006.9,N
1505340715.3,286047010.3,P
1505340735.1,286047007.2,N
1505340736.0,286047007.2,N
1505340755.8,286047009.1,N
1505340775.6,286047006.4,N
1505340795.5,286047002.1,N
1505340815.3,286046997.9,N
1505340835.1,286046995.5,N
1505340855.9,286046996.3,N
1505340875.7,286046996.7,N
1505340895.5,286046998.8,N
1505340915.4,286047000.1,N
1505340935.2,286047002.4,N
1505340955.0,286047002.3,N
1505340955.9,286047002.3,N
1505340975.8,286047001.0,N
1505340995.6,286046999.1,N
1505341015.4,286047000.1,N
1505341035.3,286046999.9,N
1505341055.1,286047000.6,N
1505341056.0,286047000.6,N
1505341075.8,286046998.2,N
1505341095.7,286047000.9,N
1505341115.5,286046999.7,N
1505341135.3,286047001.8,N
1505341155.1,286047003.3,N
1505341175.9,286047004.4,N
1505341195.7,286046998.5,N
1505341215.5,286047000.9,N
1505341235.4,286046997.8,N
1505341255.2,286046993.3,N
1505341275.0,286046995.2,N
1505341275.9,286046995.2,N
1505341295.8,286047001.1,N
1505341315.6,286047002.7,N
1505341335.4,286046999.9,N
1505341355.3,286047001.1,N
1505341375.1,286047000.2,N
1505341376.0,286047000.2,N
1505341395.8,286046998.2,N
1505341415.7,286047002.6,N
1505341435.5,286047005.9,N
1505341455.3,286047001.9,N
1505341475.2,286047001.7,N
1505341495.9,286047005.7,N
1505341515.7,286047004.4,N
1505341535.5,286047002.7,N
1505341555.4,286046998.5,N
1505341575.2,286046996.7,N
1505341595.0,286046997.4,N
1505341595.9,286046997.4,N
1505341615.8,286047000.8,N
1505341635.6,286047000.2,N
1505341655.4,286047002.0,N
1505341675.3,286047001.3,N
1505341695.1,286046998.2,N
1505341715.8,286046999.8,N
1505341735.7,286047003.1,N
1505341755.5,286047006.2,N
1505341775.3,286047004.9,N
1505341795.2,286047004.4,N
1505341815.9,286046999.7,N
1505341835.7,286047000.0,N
1505341855.6,286046999.5,N
1505341875.4,286046999.4,N
1505341895.2,286047000.3,N
1505341915.0,286047000.4,N
1505341915.9,286047000.4,N
1505341935.8,286046998.4,N
1505341955.6,286047004.4,N
1505341975.4,286047002.6,N
1505341995.3,286047003.1,N
1505342015.1,286047003.7,N
1505342035.8,286047005.9,N
1505342055.7,286047003.4,N
1505342075.5,286047001.7,N
1505342095.3,286047004.1,N
1505342115.2,286047007.8,P
1505342135.9,286047007.4,N
1505342155.7,286047010.0,P
1505342175.6,286047009.4,N
1505342195.4,286047013.8,P
1505342215.2,286047002.2,N
1505342235.1,286047001.4,N
1505342236.0,286047001.4,N
1505342255.8,286047000.3,N
1505342275.6,286046998.5,N
1505342295.5,286046998.5,N
1505342315.3,286046997.5,N
1505342335.1,286046995.7,N
1505342355.9,286046996.6,N
1505342375.7,286046996.9,N
1505342395.5,286046994.6,N
1505342415.4,286046999.4,N
1505342435.2,286046998.5,N
1505342455.0,286046995.4,N
1505342455.9,286046995.4,N
1505342475.7,286046993.7,N
1505342495.6,286046994.7,N
1505342515.4,286046992.6,N
1505342535.2,286046996.3,N
1505342555.1,286046995.5,N
1505342556.0,286046995.5,N
1505342575.8,286046999.3,N
1505342595.6,286046998.2,N
1505342615.5,286047001.6,N
1505342635.3,286046999.7,N
1505342655.1,286046995.4,N
1505342675.9,286046996.2,N
1505342695.7,286046994.4,N
1505342715.5,286046993.4,N
1505342735.4,286046993.9,N
1505342755.2,286046992.5,N
1505342775.0,286046993.4,N
1505342775.9,286046993.4,N
1505342795.8,286046988.5,P
1505342815.6,286046995.8,N
1505342835.4,286047000.0,N
1505342855.3,286046995.0,N
1505342875.1,286047002.3,N
1505342876.0,286047002.3,N
1505342895.8,286047011.0,N
1505342915.7,286047017.2,N
1505342935.5,286047017.8,N
1505342955.3,286047021.7,N
1505342975.1,286047018.1,N
1505342995.9,286047011.0,N
1505343015.7,286047006.2,N
1505343035.5,286047003.6,N
1505343055.4,286047008.6,N
1505343075.2,286047009.3,N
1505343095.0,286047007.1,N
1505343095.9,286047007.1,N
1505343115.8,286047002.9,N
1505343135.6,286047005.5,N
1505343155.4,286047004.9,N
1505343175.3,286047008.0,N
1505343195.1,286047018.3,N
1505343196.0,286047018.3,N
1505343215.8,286047024.7,N
1505343235.7,286047023.0,N
1505343255.5,286047018.0,N
1505343275.3,286047014.2,N
1505343295.1,286047012.8,N
1505343315.9,286047014.8,N
1505343335.7,286047021.9,N
1505343355.6,286047025.7,P
1505343375.4,286047016.2,N
1505343395.2,286047018.3,N
1505343415.1,286047023.3,P
1505343416.0,286047023.3,P
1505343435.8,286047006.3,N
1505343455.6,286047002.6,N
1505343475.5,286046996.4,N
1505343495.3,286046993.2,N
1505343515.1,286046995.9,N
1505343535.8,286046991.8,N
1505343555.7,286046992.2,N
1505343575.5,286046993.6,N
1505343595.3,286046995.4,N
